Regional Weather Roundup
Issued by NWS

Home | Current Version | Previous Version | Graphics & Text | Print | Product List | Glossary On
Versions: 1 2 3 4 5 6 7 8 9 10 11 12 13 14 15 16 17 18 19 20 21 22 23 24 25 26 27 28 29 30 31 32 33 34 35 36 37 38 39 40 41 42 43 44 45 46 47 48 49 50
809
ASUS45 KSLC 060810
RWRUT

UTAH REGIONAL WEATHER ROUNDUP
NATIONAL WEATHER SERVICE SALT LAKE CITY UT
100 AM MST SAT FEB 06 2016

UTZ001>011-023>025-060900-

NORTHERN UTAH

CITY           SKY/WX    TMP DP  RH WIND       PRES   REMARKS
BRIGHAM CITY   CLOUDY    28  25  88 CALM      30.53S
HILL AFB       PTCLDY    26  15  64 E9        30.51S WCI  17
LOGAN          FOG       22  22 100 CALM      30.51S VSB 1
OGDEN          CLEAR     27  21  78 S6        30.51F WCI  20
PROVO AIRPORT    N/A     10   7  85 CALM      30.56R VSB<1/4
SALT LAKE CITY PTCLDY    25  20  81 SE9       30.53R WCI  15
VERNAL         CLOUDY     5   1  83 W5        30.53F WCI  -4
WENDOVER       PTCLDY    23  18  80 CALM      30.52S
HEBER CITY     FOG        5   3  92 CALM      30.50F VSB 1/2
WEST JORDAN    CLEAR     23  19  86 S7        30.53R WCI  15

$$

UTZ012>022-026-027-060900-

SOUTHERN/CENTRAL UTAH

CITY           SKY/WX    TMP DP  RH WIND       PRES   REMARKS
BLANDING       CLEAR     16  10  75 NW7       30.55R WCI   6
BRYCE CANYON   PTCLDY     7   3  84 W6        30.47S WCI  -3
CEDAR CITY     PTCLDY    10   8  92 E3        30.49S
DELTA          CLOUDY     8   6  91 S5        30.55S VSB<1/4 WCI  -1
HANKSVILLE     CLOUDY    18  14  86 N7        30.64R WCI   8
MILFORD        FOG        2   0  91 SW9       30.52F VSB 1/2 WCI -13
MOAB/CYNLANDS  CLOUDY    16  16 100 CALM      30.58F
PRICE          PTCLDY     6   1  80 N3        30.50S
ST GEORGE      MOSUNNY   37  21  52 E6        30.54R WCI  33
KANAB          CLEAR     32  21  64 NW14      30.53S WCI  22

$$

REGIONAL REPORTS     COLORADO/ARIZONA

CITY           SKY/WX    TMP DP  RH WIND       PRES   REMARKS
CRAIG, CO      CLOUDY    -6 -10  83 W3        30.50R
GRAND JUNCTION CLOUDY     6   5  95 E3        30.57F
RIFLE          CLOUDY     3  -2  79 SE5       30.57S WCI  -6
MONTROSE       CLOUDY     8   1  73 SE8       30.58R WCI  -4
CORTEZ         CLOUDY     8   3  80 E14       30.48S WCI  -8
PAGE, AZ       CLEAR     29  20  69 E5        30.52S WCI  24
GRAND CANYON   PTCLDY    13   9  84 NE3       30.48S
KINGMAN        CLEAR     31  32 100 E7        30.44F WCI  24
FLAGSTAFF      CLEAR     19  11  70 E5        30.46R WCI  12

$$

REGIONAL REPORTS    NEVADA/IDAHO/WYOMING

CITY           SKY/WX    TMP DP  RH WIND       PRES   REMARKS
LAS VEGAS, NV  CLEAR     44  26  49 S5        30.43S
ELY            PTCLDY     6   1  80 S17       30.49S WCI -13
ELKO           PTCLDY     8   4  83 CALM      30.51R
POCATELLO, ID  CLOUDY    15  13  91 NE7       30.47F WCI   5
BURLEY         CLEAR     23  20  88 N3        30.44R
EVANSTON, WY   CLOUDY    14  11  87 SW17      30.42F FOG     WCI  -3
ROCK SPRINGS   CLOUDY    20  14  77 W17       30.37F WCI   5

$$




USA.gov is the U.S. government's official web portal to all federal, state and local government web resources and services.